This is the latest recevied weather packets stored in our database for station/object LZ1BAB-15. If no packets are shown the sender has not sent any weather packets the latest 1 day(s).
| Time | Temp. | Humidity | Pressure | Rain* | Wind** | Luminosity | Snow |
|---|---|---|---|---|---|---|---|
| 1778096478 | 20° C | 43% | 965.5 hPa | - | - | - | - |
| 1778095578 | 20.56° C | 43% | 965.3 hPa | - | - | - | - |
| 1778092877 | 20.56° C | 43% | 964.9 hPa | - | - | - | - |
| 1778091977 | 20.56° C | 42% | 964.7 hPa | - | - | - | - |
| 1778086576 | 21.11° C | 41% | 963.5 hPa | - | - | - | - |
| 1778085676 | 21.11° C | 41% | 963.4 hPa | - | - | - | - |
| 1778082075 | 21.11° C | 41% | 962.9 hPa | - | - | - | - |
| 1778081175 | 21.11° C | 40% | 963 hPa | - | - | - | - |
| 1778076673 | 21.11° C | 39% | 962.8 hPa | - | - | - | - |
| 1778075773 | 21.11° C | 39% | 962.9 hPa | - | - | - | - |
| 1778074873 | 21.11° C | 39% | 962.9 hPa | - | - | - | - |
| 1778070372 | 20.56° C | 39% | 963 hPa | - | - | - | - |
| 1778069472 | 20.56° C | 40% | 963.2 hPa | - | - | - | - |
| 1778066771 | 20.56° C | 41% | 963.6 hPa | - | - | - | - |
| 1778065871 | 20° C | 41% | 963.6 hPa | - | - | - | - |
| 1778064971 | 20° C | 40% | 963.7 hPa | - | - | - | - |
| 1778064071 | 20.56° C | 40% | 963.8 hPa | - | - | - | - |
| 1778060470 | 20° C | 41% | 964.2 hPa | - | - | - | - |
| 1778057769 | 20° C | 40% | 964.3 hPa | - | - | - | - |
| 1778056869 | 19.44° C | 40% | 964.3 hPa | - | - | - | - |
| 1778055969 | 19.44° C | 41% | 964.4 hPa | - | - | - | - |
| 1778055069 | 19.44° C | 41% | 964.5 hPa | - | - | - | - |
| 1778051468 | 18.89° C | 41% | 964.7 hPa | - | - | - | - |
| 1778050568 | 18.33° C | 42% | 964.6 hPa | - | - | - | - |
| 1778049668 | 18.33° C | 42% | 964.8 hPa | - | - | - | - |
* Rain since midnight (hover to see other rain measurements)
** Current wind speed in m/s (hover to see current wind gust speed)